Mtwara, Tanzania

12:51 AM EAT on June 23, 2017 (GMT +0300)
Mtwara

Weather History for HTMT - August, 2013

Change the Weather History Date:

Wednesday, August 28, 2013

  Actual Average Record
Temperature  
Mean Temperature 76 °F -  
Max Temperature 87 °F - - ()
Min Temperature 64 °F - - ()
Cooling Degree Days 10    
Growing Degree Days 26 (Base 50)    
Moisture  
Dew Point 66 °F    
Average Humidity 75    
Maximum Humidity 100    
Minimum Humidity 42    
Precipitation  
Precipitation 0.00 in 0.02 in - ()
Sea Level Pressure  
Sea Level Pressure 30.06 in    
Wind  
Wind Speed 11 mph ()    
Max Wind Speed 40 mph    
Max Gust Speed -    
Visibility 10.1 miles    
Events      
T = Trace of Precipitation, MM = Missing Value Source: Averaged Metar Reports

Daily Weather History Graph

Daily Weather History Graph

Search for Another Location

Airport or City:

Trip Planner

Search our weather history database for the weather conditions in past years. The results will help you decide how hot, cold, wet, or windy it might be!

Date:

Astronomy

Aug. 28, 2013 Rise Set
Actual Time 6:24 AM EAT 6:16 PM EAT
Civil Twilight 6:02 AM EAT 6:38 PM EAT
Nautical Twilight 5:38 AM EAT 7:02 PM EAT
Astronomical Twilight 5:13 AM EAT 7:27 PM EAT
Moon No Moon Rise 11:50 AM EAT (8/28)
Length of Visible Light 12h 35m
Length of Day
11h 52m
Waning Gibbous, 50% of the Moon is Illuminated
Aug 28
Waning Gibbous
Aug 28
Last Quarter
Sep 5
New
Sep 12
First Quarter
Sep 19
Full

Hourly Weather History & Observations

Time (EAT) Temp. Heat Index Dew Point Humidity Pressure Visibility Wind Dir Wind Speed Gust Speed Precip Events Conditions
12:00 AM 72 °F - 66 °F 75% 30.08 in 19 mi South 26.8 mph - -   Scattered Clouds
12:00 AM 73.4 °F - 66.2 °F 78% 30.06 in 6.2 mi South 13.8 mph - N/A   Mostly Cloudy
1:00 AM 71.6 °F - 66.2 °F 83% 30.06 in 6.2 mi SSE 6.9 mph - N/A   Scattered Clouds
2:00 AM 71.6 °F - 66.2 °F 83% 30.06 in 6.2 mi Calm Calm - N/A   Scattered Clouds
3:00 AM 70 °F - 67 °F 86% 30.06 in 19 mi Calm Calm - -   Scattered Clouds
3:00 AM 69.8 °F - 66.2 °F 88% 30.06 in 6.2 mi Calm Calm - N/A   Scattered Clouds
4:00 AM 69.8 °F - 66.2 °F 88% 30.04 in 6.2 mi Calm Calm - N/A   Scattered Clouds
5:00 AM 69.8 °F - 66.2 °F 88% 30.06 in 6.2 mi Calm Calm - N/A   Scattered Clouds
6:00 AM 72 °F - 67 °F 79% 30.07 in 19 mi Calm Calm - -   Scattered Clouds
6:00 AM 68.0 °F - 66.2 °F 94% 30.06 in 6.2 mi Calm Calm - N/A   Scattered Clouds
7:00 AM 66.2 °F - 66.2 °F 100% 30.06 in 6.2 mi South 11.5 mph - N/A   Partly Cloudy
9:00 AM 76 °F - 68 °F 69% 30.10 in 19 mi South 26.8 mph - -   Mostly Cloudy
9:00 AM 77.0 °F - 68.0 °F 74% 30.09 in 6.2 mi South 13.8 mph - N/A   Partly Cloudy
10:00 AM 80.6 °F 82.7 °F 66.2 °F 61% 30.09 in 6.2 mi South 15.0 mph - N/A   Partly Cloudy
12:00 PM 84 °F - 65 °F 42% 30.10 in 19 mi South 16.1 mph - -   Partly Cloudy
12:00 PM 84.2 °F 85.6 °F 64.4 °F 51% 30.09 in 6.2 mi South 16.1 mph - N/A   Partly Cloudy
3:00 PM - - 64 °F % 30.03 in 19 mi ESE 40.3 mph - -   Partly Cloudy
4:00 PM 84.2 °F 86.6 °F 66.2 °F 55% 30.01 in 6.2 mi SSE 25.3 mph - N/A   Scattered Clouds
5:00 PM 82.4 °F 84.6 °F 66.2 °F 58% 30.04 in 6.2 mi SE 24.2 mph - N/A   Scattered Clouds
6:00 PM 79 °F - 67 °F 58% 30.04 in 19 mi South 31.3 mph - -   Partly Cloudy
6:00 PM 78.8 °F - 66.2 °F 65% 30.04 in 6.2 mi South 16.1 mph - N/A   Scattered Clouds
7:00 PM 77.0 °F - 66.2 °F 69% 30.06 in 6.2 mi SSE 11.5 mph - N/A   Partly Cloudy
8:00 PM 71.6 °F - 68.0 °F 88% 30.06 in 6.2 mi SSE 8.1 mph - N/A   Partly Cloudy
9:00 PM 72 °F - 67 °F 80% 30.08 in 19 mi SSE 11.2 mph - -   Scattered Clouds
9:00 PM 71.6 °F - 68.0 °F 88% 30.06 in 6.2 mi SSE 5.8 mph - N/A   Partly Cloudy
10:00 PM 71.6 °F - 66.2 °F 83% 30.09 in 6.2 mi SSE 5.8 mph - N/A   Partly Cloudy